Home   Weather   Abidjan   Past weeks

Flag for Cote d'Ivoire (Ivory Coast) Past Weather in Abidjan, Cote d'Ivoire (Ivory Coast) — Yesterday and Last 2 Weeks

Now
82 °F

Passing clouds.


Feels Like: 92 °F
Forecast: N/A
Wind: 3 mph from Southwest

Location: Abidjan Airport

Current Time: Jan 17, 2017 at 11:43:44 pm

Latest Report: Jan 17, 2017 at 9:30 pm


Visibility: 6 mi

Pressure: 29.83 "Hg

Humidity: 89%

Dew Point: 79 °F

Location of AbidjanLocation

Past Weather in Abidjan — Graph

°F

Abidjan Temperature Yesterday

Maximum temperature yesterday: 88 °F (at 2:30 pm)
Minimum temperature yesterday: 72 °F (at 5:22 am)
Average temperature yesterday: 80 °F

High & Low Weather Summary for the Past Weeks

 TemperatureHumidityPressure
High91 °F (Jan 4, 1:30 pm)100% (Jan 7, 5:00 am)29.92 "Hg (Jan 7, 5:00 am)
Low72 °F (Jan 15, 6:00 am)17% (Jan 14, 12:00 pm)29.71 "Hg (Jan 10, 4:00 pm)
Average82 °F82%29.82 "Hg
* Reported Jan 2 9:00 pm — Jan 17 9:30 pm, Abidjan, Weather by CustomWeather, © 2017

Note: Actual official high and low records may vary slightly from our data, if they occured in-between our weather recording intervals... More about our weather records

Advertising

Abidjan Weather History for the Previous 24 Hours

Scroll right to see more
 ConditionsComfort  
Time TempWeatherWind HumidityBarometerVisibility
9:30 pm
Tue, Jan 17
82 °FPassing clouds.3 mph89%29.83 "Hg6 mi
9:00 pm82 °FPassing clouds.5 mph89%29.83 "Hg6 mi
8:30 pm82 °FPassing clouds.7 mph89%29.80 "Hg6 mi
8:00 pm82 °FPassing clouds.7 mph89%29.80 "Hg6 mi
7:30 pm82 °FClear.7 mph89%29.77 "Hg6 mi
7:00 pm82 °FClear.6 mph89%29.77 "Hg6 mi
6:30 pm82 °FPassing clouds.6 mph89%29.77 "Hg5 mi
6:00 pm84 °FPassing clouds.8 mph84%29.74 "Hg5 mi
5:30 pm84 °FPassing clouds.9 mph84%29.74 "Hg5 mi
5:00 pm86 °FPassing clouds.10 mph75%29.74 "Hg5 mi
4:30 pm86 °FPassing clouds.12 mph75%29.74 "Hg5 mi
4:00 pm86 °FPassing clouds.13 mph75%29.74 "Hg5 mi
3:30 pm88 °FPassing clouds.13 mph70%29.74 "Hg5 mi
3:00 pm88 °FPassing clouds.13 mph70%29.74 "Hg5 mi
2:30 pm88 °FPassing clouds.14 mph70%29.74 "Hg5 mi
2:00 pm88 °FPassing clouds.13 mph70%29.77 "Hg5 mi
1:30 pm88 °FPassing clouds.13 mph70%29.77 "Hg5 mi
1:00 pm88 °FPassing clouds.14 mph70%29.80 "Hg5 mi
12:30 pm88 °FScattered clouds.14 mph70%29.80 "Hg5 mi
12:00 pm88 °FScattered clouds.13 mph70%29.83 "Hg4 mi
11:30 am86 °FScattered clouds.10 mph75%29.83 "Hg4 mi
11:00 am86 °FScattered clouds.9 mph70%29.83 "Hg4 mi
10:30 am86 °FScattered clouds.9 mph75%29.83 "Hg4 mi
10:00 am86 °FPassing clouds.9 mph70%29.83 "Hg4 mi
9:30 am84 °FPassing clouds.8 mph79%29.86 "Hg4 mi
9:04 am84 °FPassing clouds.7 mph79%29.86 "Hg4 mi
8:35 am81 °FFog.3 mph94%29.86 "Hg3 mi
8:14 am81 °FFog.1 mph100%29.86 "Hg1 mi
8:00 am75 °FFog.No wind100%29.83 "Hg1 mi
7:30 am75 °FFog.No wind100%29.83 "Hg1 mi
7:17 am75 °FFog.1 mph94%29.83 "Hg1 mi
7:00 am73 °FFog.No wind100%29.80 "Hg1 mi
6:31 am73 °FFog.1 mph100%29.80 "Hg1 mi
6:24 am73 °FFog.1 mph100%29.80 "Hg1 mi
6:00 am77 °FFog.2 mph100%29.80 "Hg3 mi
5:30 am77 °FFog.2 mph100%29.80 "Hg3 mi
5:00 am73 °FFog.1 mph100%29.80 "Hg2 mi
4:30 am73 °FFog.1 mph100%29.80 "Hg1 mi
4:00 am75 °FFog.1 mph94%29.77 "Hg1 mi
3:30 am75 °FFog.1 mph94%29.80 "Hg1 mi
3:00 am75 °FFog.No wind94%29.77 "Hg2 mi
2:30 am75 °FFog.1 mph94%29.80 "Hg2 mi
2:00 am75 °FFog.1 mph94%29.80 "Hg2 mi
1:32 am77 °FFog.No wind94%29.80 "Hg2 mi
1:04 am77 °FPassing clouds.1 mph100%29.83 "Hg3 mi
1:00 am75 °FPassing clouds.No wind100%29.83 "Hg2 mi
12:30 am75 °FPassing clouds.1 mph100%29.83 "Hg4 mi
12:00 am77 °FPassing clouds.1 mph94%29.83 "Hg4 mi
11:30 pm
Mon, Jan 16
79 °FPassing clouds.1 mph94%29.83 "Hg4 mi
11:00 pm79 °FPassing clouds.2 mph94%29.83 "Hg4 mi
Weather by CustomWeather, © 2017

See weather overviewHow to use our weather pages